Belize, Belize

7:12 AM CST on November 22, 2017 (GMT -0600)
Philip S W Goldson International

Weather History for MZBZ - April, 2013

Change the Weather History Date:

Monday, April 8, 2013

  Actual Average Record
Temperature  
Mean Temperature 80 °F -  
Max Temperature 88 °F 88 °F 94 °F (2014)
Min Temperature 71 °F 74 °F 66 °F (2009)
Cooling Degree Days 14    
Growing Degree Days 30 (Base 50)    
Moisture  
Dew Point 73 °F    
Average Humidity 76    
Maximum Humidity 94    
Minimum Humidity 58    
Precipitation  
Precipitation 0.00 in 0.09 in - ()
Sea Level Pressure  
Sea Level Pressure 29.89 in    
Wind  
Wind Speed 7 mph ()    
Max Wind Speed 14 mph    
Max Gust Speed -    
Visibility 9.0 miles    
Events      
Averages and records for this station are not official NWS values.
T = Trace of Precipitation, MM = Missing Value Source: Averaged Metar Reports

Daily Weather History Graph

Daily Weather History Graph

Search for Another Location

Airport or City:

Trip Planner

Search our weather history database for the weather conditions in past years. The results will help you decide how hot, cold, wet, or windy it might be!

Date:

Astronomy

Apr. 08, 2013 Rise Set
Actual Time 5:42 AM CST 6:07 PM CST
Civil Twilight 5:20 AM CST 6:29 PM CST
Nautical Twilight 4:54 AM CST 6:55 PM CST
Astronomical Twilight 4:28 AM CST 7:21 PM CST
Moon 4:19 AM CST (4/8) 4:49 PM CST (4/8)
Length of Visible Light 13h 09m
Length of Day
12h 25m
Waning Crescent, 3% of the Moon is Illuminated
Apr 8
Waning Crescent
Apr 10
New
Apr 18
First Quarter
Apr 25
Full
May 2
Last Quarter

Hourly Weather History & Observations

Time (CST) Temp. Heat Index Dew Point Humidity Pressure Visibility Wind Dir Wind Speed Gust Speed Precip Events Conditions
12:00 AM 74 °F - 68 °F 76% 29.94 in 12 mi ESE 6.9 mph - -   Scattered Clouds
3:00 AM 73 °F - 68 °F 81% 29.87 in 12 mi ESE 3.5 mph - -   Scattered Clouds
5:00 AM 71.6 °F - 68.0 °F 88% 29.87 in 6.2 mi Calm Calm - N/A   Scattered Clouds
6:00 AM 73 °F - 71 °F 90% 29.89 in 12 mi East 2.3 mph - -   Partly Cloudy
6:00 AM 73.4 °F - 71.6 °F 94% 29.89 in 6.2 mi East 2.3 mph - N/A   Scattered Clouds
7:00 AM 77.0 °F - 73.4 °F 89% 29.90 in 6.2 mi East 4.6 mph - N/A   Scattered Clouds
8:00 AM 80.6 °F 86.2 °F 75.2 °F 84% 29.92 in 6.2 mi ESE 10.4 mph - N/A   Mostly Cloudy
9:00 AM 83 °F - 75 °F 70% 29.93 in 16 mi SE 6.9 mph - -   Mostly Cloudy
9:00 AM 82.4 °F 89.5 °F 75.2 °F 79% 29.93 in 6.2 mi SE 6.9 mph - N/A   Mostly Cloudy
10:00 AM 84.2 °F 92.3 °F 75.2 °F 74% 29.93 in 6.2 mi ESE 8.1 mph - N/A   Mostly Cloudy
11:00 AM 86.0 °F 95.1 °F 75.2 °F 70% 29.92 in 6.2 mi ESE 9.2 mph - N/A   Mostly Cloudy
12:00 PM 87 °F - 74 °F 58% 29.91 in 16 mi East 12.7 mph - -   Partly Cloudy
12:00 PM 86.0 °F 93.4 °F 73.4 °F 66% 29.90 in 6.2 mi East 12.7 mph - N/A   Scattered Clouds
1:00 PM 87.8 °F 97.6 °F 75.2 °F 66% 29.87 in 6.2 mi East 11.5 mph - N/A   Scattered Clouds
2:00 PM 86.0 °F 93.4 °F 73.4 °F 66% 29.86 in 6.2 mi ENE 13.8 mph - N/A   Scattered Clouds
3:00 PM 85 °F - 73 °F 60% 29.85 in 16 mi East 13.8 mph - -   Scattered Clouds
3:00 PM 86.0 °F 93.4 °F 73.4 °F 66% 29.84 in 6.2 mi East 13.8 mph - N/A   Partly Cloudy
4:00 PM 84.2 °F 90.9 °F 73.4 °F 70% 29.84 in 6.2 mi East 13.8 mph - N/A   Partly Cloudy
5:00 PM 82.4 °F 89.5 °F 75.2 °F 79% 29.85 in 6.2 mi East 12.7 mph - N/A   Partly Cloudy
6:00 PM 81 °F - 74 °F 75% 29.87 in 16 mi East 9.2 mph - -   Scattered Clouds
6:00 PM 80.6 °F 86.2 °F 75.2 °F 84% 29.86 in 6.2 mi East 9.2 mph - N/A   Scattered Clouds
9:00 PM 80 °F - 74 °F 77% 29.92 in 12 mi East 10.4 mph - -   Partly Cloudy